Weather History for Monett, MO

Change the Weather History Date:

Thursday, March 21, 2013

  Actual Average (KJLN) Record (KJLN)
Temperature  
Mean Temperature 34 °F 50 °F  
Max Temperature 37 °F 62 °F 84 °F (1997)
Min Temperature 30 °F 39 °F 13 °F (1974)
Degree Days  
Heating Degree Days 32 15  
Month to date heating degree days 374  
Since 1 July heating degree days 3628  
Cooling Degree Days 0 0  
Month to date cooling degree days 0  
Year to date cooling degree days 1  
Moisture  
Dew Point 21 °F    
Average Humidity 66    
Maximum Humidity 93    
Minimum Humidity 38    
Precipitation  
Precipitation 0.08 in 0.11 in 1.18 in (1949)
Month to date precipitation 2.22  
Year to date precipitation 6.57  
Sea Level Pressure  
Sea Level Pressure 29.94 in    
Wind  
Wind Speed 9 mph (ESE)    
Max Wind Speed 18 mph    
Max Gust Speed 23 mph    
Visibility 8 miles    
Events Rain , Snow    
T = Trace of Precipitation, MM = Missing Value Source: NWS Daily Summary

Daily Weather History Graph

Daily Weather History Graph

Search for Another Location

Airport:

Trip Planner

Search our weather history database for the weather conditions in past years. The results will help you decide how hot, cold, wet, or windy it might be!

Date:

Astronomy

Mar. 21, 2013 Rise Set
Actual Time 7:17 AM CDT 7:29 PM CDT
Civil Twilight 6:51 AM CDT 7:54 PM CDT
Nautical Twilight 6:21 AM CDT 8:25 PM CDT
Astronomical Twilight 5:50 AM CDT 8:56 PM CDT
Moon 2:06 PM CDT (3/21) 3:32 AM CDT (3/21)
Length of Visible Light 13h 03m
Length of Day
12h 11m
Waxing Gibbous, 69% of the Moon is Illuminated
Mar 21
Waxing Gibbous
Mar 27
Full
Apr 2
Last Quarter
Apr 10
New
Apr 18
First Quarter

Hourly Weather History & Observations

Time (CDT) Temp. Windchill Dew Point Humidity Pressure Visibility Wind Dir Wind Speed Gust Speed Precip Events Conditions
12:15 AM 30.2 °F 25.4 °F 17.6 °F 60% 30.09 in 10.0 mi East 4.6 mph - N/A   Clear
12:35 AM 30.2 °F 25.4 °F 15.8 °F 55% 30.09 in 10.0 mi East 4.6 mph - N/A   Clear
12:55 AM 30.2 °F 24.3 °F 15.8 °F 55% 30.08 in 10.0 mi East 5.8 mph - N/A   Clear
1:15 AM 30.2 °F 24.3 °F 14.0 °F 51% 30.08 in 10.0 mi East 5.8 mph - N/A   Clear
1:35 AM 30.2 °F 23.4 °F 15.8 °F 55% 30.07 in 10.0 mi East 6.9 mph - N/A   Clear
1:55 AM 30.2 °F 24.3 °F 14.0 °F 51% 30.06 in 10.0 mi East 5.8 mph - N/A   Clear
2:15 AM 32.0 °F 25.6 °F 14.0 °F 48% 30.05 in 10.0 mi East 6.9 mph - N/A   Clear
2:35 AM 32.0 °F 26.4 °F 15.8 °F 51% 30.05 in 10.0 mi East 5.8 mph - N/A   Clear
2:55 AM 32.0 °F 27.5 °F 17.6 °F 55% 30.05 in 10.0 mi East 4.6 mph - N/A   Clear
3:15 AM 30.2 °F 23.4 °F 19.4 °F 64% 30.05 in 10.0 mi ESE 6.9 mph - N/A   Clear
3:35 AM 30.2 °F 24.3 °F 19.4 °F 64% 30.05 in 10.0 mi ESE 5.8 mph - N/A   Scattered Clouds
3:55 AM 30.2 °F 23.4 °F 17.6 °F 60% 30.04 in 10.0 mi ESE 6.9 mph - N/A   Mostly Cloudy
4:15 AM 30.2 °F 23.4 °F 17.6 °F 60% 30.03 in 10.0 mi East 6.9 mph - N/A   Overcast
4:55 AM 30.2 °F 23.4 °F 19.4 °F 64% 30.02 in 10.0 mi East 6.9 mph - N/A   Overcast
5:15 AM 30.2 °F 25.4 °F 17.6 °F 60% 30.02 in 10.0 mi East 4.6 mph - N/A   Mostly Cloudy
5:35 AM 30.2 °F 24.3 °F 17.6 °F 60% 30.01 in 10.0 mi East 5.8 mph - N/A   Mostly Cloudy
5:55 AM 30.2 °F 24.3 °F 17.6 °F 60% 30.02 in 10.0 mi East 5.8 mph - N/A   Overcast
6:15 AM 30.2 °F 23.4 °F 17.6 °F 60% 30.02 in 10.0 mi ESE 6.9 mph - N/A   Overcast
6:35 AM 30.2 °F 22.6 °F 15.8 °F 55% 30.02 in 10.0 mi East 8.1 mph - N/A   Overcast
6:55 AM 30.2 °F 21.9 °F 14.0 °F 51% 30.00 in 10.0 mi East 9.2 mph - N/A   Overcast
7:15 AM 30.2 °F 21.9 °F 12.2 °F 47% 29.99 in 10.0 mi East 9.2 mph - N/A   Overcast
7:35 AM 32.0 °F 23.6 °F 14.0 °F 48% 30.00 in 10.0 mi ESE 10.4 mph - N/A   Overcast
7:55 AM 32.0 °F 23.6 °F 12.2 °F 44% 30.00 in 10.0 mi ESE 10.4 mph - N/A   Overcast
8:15 AM 32.0 °F 24.2 °F 12.2 °F 44% 30.00 in 10.0 mi ESE 9.2 mph - N/A   Overcast
8:35 AM 32.0 °F 23.0 °F 14.0 °F 48% 30.00 in 10.0 mi ESE 11.5 mph 17.3 mph N/A   Overcast
8:55 AM 32.0 °F 23.0 °F 14.0 °F 48% 30.00 in 10.0 mi ESE 11.5 mph - N/A   Overcast
9:15 AM 32.0 °F 21.2 °F 12.2 °F 44% 29.99 in 10.0 mi ESE 16.1 mph 19.6 mph N/A   Overcast
9:35 AM 32.0 °F 22.1 °F 14.0 °F 48% 29.99 in 10.0 mi ESE 13.8 mph - N/A   Overcast
9:55 AM 32.0 °F 24.2 °F 14.0 °F 48% 29.99 in 10.0 mi East 9.2 mph - N/A   Overcast
10:15 AM 33.8 °F 24.3 °F 12.2 °F 41% 29.96 in 10.0 mi East 13.8 mph 19.6 mph N/A   Overcast
10:35 AM 33.8 °F 25.8 °F 12.2 °F 41% 29.98 in 10.0 mi ESE 10.4 mph 20.7 mph N/A   Overcast
10:55 AM 35.6 °F 27.5 °F 12.2 °F 38% 29.97 in 10.0 mi SE 11.5 mph - N/A   Overcast
11:15 AM 35.6 °F 25.5 °F 12.2 °F 38% 29.95 in 10.0 mi ESE 17.3 mph - N/A   Overcast
11:35 AM 35.6 °F 29.2 °F 12.2 °F 38% 29.96 in 10.0 mi ESE 8.1 mph - N/A   Overcast
11:55 AM 35.6 °F 29.2 °F 12.2 °F 38% 29.95 in 10.0 mi ESE 8.1 mph - N/A   Overcast
12:15 PM 37.4 °F 29.8 °F 14.0 °F 38% 29.95 in 10.0 mi SE 11.5 mph - N/A   Overcast
12:35 PM 37.4 °F 30.3 °F 14.0 °F 38% 29.94 in 10.0 mi ESE 10.4 mph 16.1 mph N/A   Overcast
12:55 PM 37.4 °F 29.8 °F 17.6 °F 45% 29.93 in 10.0 mi East 11.5 mph 20.7 mph N/A   Overcast
1:15 PM 37.4 °F 28.9 °F 19.4 °F 48% 29.92 in 10.0 mi ESE 13.8 mph - N/A   Overcast
1:35 PM 37.4 °F 29.3 °F 21.2 °F 52% 29.91 in 10.0 mi East 12.7 mph 20.7 mph N/A Rain Light Rain
1:55 PM 37.4 °F 28.5 °F 21.2 °F 52% 29.90 in 10.0 mi ESE 15.0 mph - N/A   Overcast
2:15 PM 37.4 °F 28.5 °F 19.4 °F 48% 29.88 in 10.0 mi ESE 15.0 mph 20.7 mph N/A   Overcast
2:35 PM 37.4 °F 28.5 °F 19.4 °F 48% 29.88 in 10.0 mi ESE 15.0 mph 23.0 mph N/A   Overcast
2:55 PM 37.4 °F 29.3 °F 21.2 °F 52% 29.88 in 10.0 mi ESE 12.7 mph 21.9 mph N/A Rain Light Rain
3:15 PM 33.8 °F 23.2 °F 24.8 °F 70% 29.86 in 3.0 mi East 17.3 mph 21.9 mph N/A   Overcast
3:35 PM 33.8 °F 25.3 °F 26.6 °F 75% 29.85 in 7.0 mi East 11.5 mph 17.3 mph N/A Rain Light Rain
3:55 PM 33.8 °F 25.8 °F 26.6 °F 75% 29.84 in 5.0 mi East 10.4 mph 18.4 mph N/A Rain Light Rain
4:15 PM 32.0 °F 22.5 °F 30.2 °F 93% 29.83 in 1.8 mi ESE 12.7 mph 23.0 mph N/A   Overcast
4:35 PM 32.0 °F 22.1 °F 30.2 °F 93% 29.83 in 1.8 mi ESE 13.8 mph - 0.01 in Rain Rain
4:55 PM 32.0 °F 21.2 °F 30.2 °F 93% 29.82 in 1.8 mi ESE 16.1 mph 21.9 mph 0.02 in   Overcast
5:15 PM 32.0 °F 21.6 °F 30.2 °F 93% 29.83 in 7.0 mi ESE 15.0 mph 23.0 mph N/A Rain Rain
5:35 PM 32.0 °F 22.5 °F 30.2 °F 93% 29.82 in 5.0 mi East 12.7 mph 18.4 mph N/A Rain Light Rain
5:55 PM 32.0 °F 21.6 °F 30.2 °F 93% 29.82 in 10.0 mi East 15.0 mph 20.7 mph N/A   Overcast
6:15 PM 32.0 °F 22.1 °F 30.2 °F 93% 29.82 in 3.0 mi East 13.8 mph 20.7 mph 0.01 in Rain Light Rain
6:35 PM 32.0 °F 23.0 °F 30.2 °F 93% 29.82 in 10.0 mi East 11.5 mph 18.4 mph 0.01 in Rain Light Rain
6:55 PM 32.0 °F 24.2 °F 30.2 °F 93% 29.84 in 10.0 mi East 9.2 mph 17.3 mph 0.01 in   Drizzle
7:15 PM 32.0 °F 24.2 °F 30.2 °F 93% 29.84 in 7.0 mi East 9.2 mph 16.1 mph N/A Rain Rain
7:35 PM 32.0 °F 24.2 °F 30.2 °F 93% 29.84 in 2.5 mi East 9.2 mph - 0.01 in Snow Light Snow
7:55 PM 32.0 °F 22.5 °F 30.2 °F 93% 29.84 in 2.0 mi East 12.7 mph 16.1 mph 0.03 in Snow Light Snow
8:15 PM 32.0 °F 23.6 °F 30.2 °F 93% 29.84 in 1.0 mi East 10.4 mph 18.4 mph 0.02 in Snow Light Snow
8:35 PM 32.0 °F 22.1 °F 30.2 °F 93% 29.84 in 3.0 mi East 13.8 mph 20.7 mph 0.02 in Snow Light Snow
8:55 PM 32.0 °F 22.5 °F 30.2 °F 93% 29.84 in 7.0 mi East 12.7 mph 20.7 mph 0.02 in Rain Light Rain
9:15 PM 32.0 °F 22.1 °F 30.2 °F 93% 29.84 in 10.0 mi East 13.8 mph 21.9 mph N/A   Light Drizzle
9:35 PM 32.0 °F 21.6 °F 30.2 °F 93% 29.85 in 10.0 mi East 15.0 mph 23.0 mph N/A   Overcast
9:55 PM 32.0 °F 21.2 °F 30.2 °F 93% 29.85 in 7.0 mi ESE 16.1 mph 21.9 mph N/A   Overcast
10:15 PM 32.0 °F 21.6 °F 30.2 °F 93% 29.85 in 7.0 mi ESE 15.0 mph 20.7 mph N/A   Light Drizzle
10:35 PM 32.0 °F 20.5 °F 30.2 °F 93% 29.84 in 7.0 mi ESE 18.4 mph 21.9 mph N/A   Overcast
10:55 PM 32.0 °F 21.2 °F 30.2 °F 93% 29.84 in 7.0 mi ESE 16.1 mph 21.9 mph N/A   Overcast
11:15 PM 32.0 °F 22.1 °F 30.2 °F 93% 29.84 in 10.0 mi ESE 13.8 mph 21.9 mph N/A   Overcast
11:35 PM 32.0 °F 22.5 °F 30.2 °F 93% 29.85 in 10.0 mi ESE 12.7 mph 17.3 mph N/A   Overcast
11:55 PM 32.0 °F 22.1 °F 30.2 °F 93% 29.84 in 10.0 mi ESE 13.8 mph 19.6 mph N/A   Overcast